Vorticity
nan nan nan nan nan nan nan nan nan nan nan nan nan nan nan nan nan nan nan nan nan nan nan nan nan nan nan nan nan nan nan nan nan nan nan nan nan nan nan nan nan nan nan nan nan
nan 6 6 7 8 8 8 8 9 9 8 9 8 8 9 10 11 16 16 8 8 9 11 7 8 7 4 8 4 0 -3 9 14 0 6 4 7 4 5 7 9 17 17 14 nan
nan 7 7 7 8 9 9 9 9 9 9 8 8 10 11 8 14 22 14 6 6 7 9 4 7 7 3 7 5 3 2 5 -3 4 11 17 11 -0 6 20 3 12 10 5 nan
nan 7 7 7 7 9 9 10 10 10 10 10 9 10 13 8 9 16 10 6 6 9 7 7 10 6 6 5 6 4 6 3 11 2 9 11 0 20 17 4 12 18 12 5 nan
nan 7 7 7 8 9 10 10 10 12 14 13 12 13 10 6 12 9 5 9 7 11 8 9 10 5 5 5 6 5 6 3 4 10 13 5 14 10 2 13 14 14 10 6 nan
nan 8 7 7 7 9 10 10 10 13 15 14 13 8 4 1 7 6 11 9 8 8 6 6 7 4 5 7 8 9 6 13 4 7 4 4 1 12 19 9 11 9 8 8 nan
nan 7 7 7 7 9 10 11 11 11 14 17 11 3 4 12 3 9 12 10 12 9 3 9 4 5 2 5 6 10 8 12 1 6 9 5 5 13 27 5 9 8 9 6 nan
nan 7 7 7 7 9 10 11 12 10 11 16 11 3 6 13 10 18 11 12 14 10 4 7 7 5 7 5 6 12 13 7 11 10 5 5 11 8 4 6 9 8 7 7 nan
nan 7 7 8 8 11 10 12 17 11 12 10 5 5 8 8 10 9 14 8 13 9 7 8 12 7 10 7 11 9 12 8 12 11 8 -1 10 -3 5 21 12 9 6 7 nan
nan 7 7 8 8 9 19 21 13 17 12 2 8 10 10 5 11 8 11 13 13 8 7 9 9 10 8 8 6 6 5 7 11 12 8 4 11 9 2 2 13 13 7 8 nan
nan 7 7 7 10 10 19 21 16 11 1 7 13 13 12 10 9 10 8 13 9 8 9 9 4 8 7 4 -0 -1 8 14 10 9 6 11 7 3 -3 11 6 6 21 6 nan
nan 8 8 8 9 18 15 9 6 8 18 15 3 9 3 5 13 14 9 10 9 7 8 5 4 6 7 9 5 5 5 6 13 14 15 9 8 3 -1 15 9 5 14 8 nan
nan 8 8 9 21 26 12 6 7 14 17 16 5 7 8 6 8 13 12 7 6 7 7 2 10 7 6 7 10 8 7 5 4 15 16 9 1 3 0 5 20 28 7 10 nan
nan 8 8 22 22 14 12 3 11 13 16 17 12 10 8 6 11 3 9 12 9 10 12 8 2 10 13 5 7 8 7 6 7 9 13 7 8 12 6 7 12 12 5 19 nan
nan 8 17 19 13 8 4 8 14 11 15 9 6 7 10 11 12 7 5 13 9 12 11 11 12 7 6 11 7 7 7 10 8 7 9 11 8 12 20 4 4 6 11 11 nan
nan 8 22 23 7 1 4 13 16 7 12 9 7 10 8 13 3 5 8 3 6 14 8 11 15 14 9 4 6 10 9 9 14 14 10 10 9 13 7 7 9 6 9 13 nan
nan 12 17 10 4 10 13 15 10 14 18 7 4 5 11 14 5 5 11 8 7 10 11 10 7 11 15 10 8 9 8 12 11 10 11 10 6 11 11 10 7 3 13 17 nan
nan 26 22 7 4 9 14 11 7 9 11 9 6 7 2 9 15 9 8 6 11 11 10 14 23 15 6 11 13 9 6 5 3 4 11 10 11 2 -1 18 28 13 15 12 nan
nan 27 14 8 8 11 12 4 7 6 4 9 12 14 10 9 6 7 10 13 7 15 16 18 9 4 23 21 4 8 7 2 8 6 6 12 10 12 14 9 3 11 17 3 nan
nan 15 13 7 13 11 8 14 6 8 8 10 13 10 15 11 11 7 5 14 9 3 9 8 8 13 9 23 20 6 9 9 8 9 7 10 13 18 13 13 5 -0 2 10 nan
nan 10 5 12 13 12 12 12 4 4 10 12 11 11 10 3 7 10 10 8 13 4 6 11 14 8 11 14 17 15 7 3 13 13 9 9 10 27 24 8 9 9 8 8 nan
nan 12 7 13 11 9 11 13 8 5 13 13 11 10 11 10 12 11 8 10 9 12 13 13 17 16 12 7 7 6 16 15 5 7 8 9 -3 4 33 28 6 7 8 3 nan
nan 8 12 13 13 15 6 4 9 11 12 11 11 8 12 13 14 12 6 1 6 8 13 16 12 12 13 12 15 13 10 6 8 9 8 11 3 -1 9 29 29 13 8 23 nan
nan 10 7 9 13 13 10 7 9 9 9 7 12 10 11 16 9 6 10 2 4 10 4 8 8 4 4 1 8 20 17 10 12 11 9 4 6 10 -0 14 23 9 17 14 nan
nan 9 7 7 8 8 11 14 8 8 4 11 11 10 12 8 9 9 7 6 5 9 2 11 11 11 4 -2 6 10 8 14 15 11 6 12 4 2 1 6 9 12 9 7 nan
nan 12 11 7 12 11 8 10 10 7 9 9 8 4 4 12 7 3 6 9 7 7 6 6 16 12 14 15 9 11 13 9 6 9 11 8 14 7 4 -1 4 8 8 9 nan
nan nan nan nan nan nan nan nan nan nan nan nan nan nan nan nan nan nan nan nan nan nan nan nan nan nan nan nan nan nan nan nan nan nan nan nan nan nan nan nan nan nan nan nan nan
CAPE
0 1 2 1 1 2 2 2 2 1 1 1 1 1 1 0 0 0 0 0 0 0 0 0 0 0 0 0 1 28 24 88 347 268 268 584 820 407 57 345 639 654 603 311 139
0 0 1 1 2 3 3 2 1 1 0 0 1 0 2 1 0 0 0 0 0 0 0 0 0 0 0 0 0 11 39 297 179 86 25 37 482 0 399 791 654 716 527 331 233
0 0 2 1 2 3 3 2 1 0 0 0 0 1 1 0 0 0 0 0 0 0 0 0 0 0 0 0 0 11 0 2 5 13 130 257 234 844 575 701 460 695 412 384 293
0 0 1 1 2 2 2 1 1 0 0 0 0 1 0 0 0 0 0 0 0 0 0 0 0 0 0 0 0 4 0 41 20 5 220 465 406 271 286 510 510 527 366 379 231
0 1 1 2 2 2 1 0 0 0 1 0 0 0 0 0 0 0 0 0 0 0 0 0 0 0 0 0 0 0 0 0 28 11 545 102 7 56 44 501 378 438 273 303 264
1 4 5 3 3 1 1 1 0 0 0 0 0 0 0 0 0 0 0 0 0 0 0 0 0 0 0 0 0 0 0 0 5 240 537 314 214 270 465 585 658 497 236 279 164
2 4 4 4 1 0 0 0 0 0 0 0 0 0 0 0 0 0 0 0 0 0 0 0 0 0 0 0 0 0 0 0 0 1 259 316 247 368 531 438 560 493 319 320 350
4 4 4 4 2 0 0 0 0 0 0 0 0 0 0 0 0 0 0 0 0 0 0 0 0 0 0 0 0 0 0 0 0 0 17 175 387 444 389 238 510 574 418 420 287
4 4 5 3 1 1 0 0 0 0 0 0 0 0 0 0 0 0 0 0 0 0 0 0 0 0 0 0 0 0 0 0 0 0 0 16 335 1244 329 342 640 498 502 446 366
5 4 4 2 0 0 0 0 0 0 0 0 0 0 0 0 0 0 0 0 0 0 0 0 0 0 0 0 0 0 0 0 0 0 0 0 332 298 72 48 169 629 512 507 418
6 4 3 1 0 0 0 0 0 0 0 0 0 0 0 0 0 0 0 0 0 0 0 0 0 0 0 0 0 0 0 0 0 0 0 0 190 61 0 0 0 446 537 523 443
7 4 2 2 0 0 0 0 0 0 0 0 0 0 0 0 0 0 0 0 0 0 0 0 0 0 0 0 0 0 0 0 0 0 0 47 316 18 0 0 0 37 587 463 608
4 2 0 0 0 0 0 0 0 0 0 0 0 0 0 0 0 0 0 0 0 0 0 0 0 0 0 0 0 0 0 0 0 0 0 29 476 11 0 57 189 378 682 502 777
0 0 0 1 0 0 0 0 0 0 0 0 0 0 0 0 0 0 0 0 0 0 0 0 0 0 0 0 0 0 0 0 0 0 0 0 0 588 348 480 642 676 179 378 423
0 0 0 0 0 0 0 0 0 0 0 0 0 0 0 0 0 0 0 0 0 0 0 0 0 0 0 0 0 0 0 0 0 0 0 0 1 19 937 609 46 15 261 321 75
0 0 0 0 0 0 0 0 0 0 0 0 0 0 0 0 0 0 0 0 0 0 0 0 0 0 0 0 0 0 0 0 0 0 0 0 0 2 604 104 0 33 498 470 192
0 0 0 0 0 0 0 0 0 0 0 0 0 0 0 0 0 0 0 0 0 0 0 0 0 0 0 0 0 0 0 0 0 0 0 0 0 0 94 704 113 7 618 761 459
0 0 0 0 0 0 0 0 2 55 0 0 0 0 0 0 0 0 0 0 0 0 0 0 0 0 0 0 0 0 0 0 0 0 0 0 0 0 0 0 734 1000 585 889 953
0 0 0 0 0 0 0 61 59 4 0 0 0 0 0 0 0 0 0 0 0 0 0 0 0 0 2 0 0 0 5 0 0 0 0 0 0 0 0 0 18 96 252 463 71
0 0 0 0 0 0 6 55 7 0 0 0 0 0 3 6 0 0 0 0 0 0 0 0 0 0 0 9 9 0 0 3 3 8 8 0 2 0 0 0 81 145 70 149 22
0 0 0 0 0 1 111 0 0 0 0 0 0 0 0 0 0 0 0 0 0 0 0 0 0 0 0 0 8 34 4 5 13 6 3 0 0 12 2 0 0 224 129 9 79
0 12 0 0 0 3 1 0 0 0 0 0 0 0 0 0 1 1 2 0 0 0 0 0 0 0 0 0 0 11 6 8 47 29 14 28 13 89 30 0 0 0 205 134 95
0 0 0 0 11 0 0 0 0 0 0 0 0 0 0 0 0 2 2 0 0 0 0 0 0 0 0 0 0 0 0 0 1 12 59 43 0 8 1 5 2 2 14 239 375
0 16 0 0 0 0 1 0 1 0 0 0 0 0 0 0 1 0 0 0 0 0 0 0 0 0 1 0 0 14 0 0 0 48 4 7 42 118 106 148 300 355 346 180 373
0 0 0 0 0 0 0 0 2 2 0 0 0 0 0 2 3 6 6 4 0 11 0 5 5 0 0 0 0 0 0 0 0 0 22 2 92 0 3 92 53 324 248 141 229
0 0 0 0 0 5 0 1 0 0 0 0 0 0 0 0 0 0 0 0 8 6 34 32 34 29 12 0 0 3 0 0 0 0 1 0 0 23 0 0 100 354 317 277 312
0 0 0 0 0 0 0 0 0 0 0 0 0 0 7 2 0 0 0 0 1 8 8 26 96 109 39 16 11 3 1 0 0 0 0 0 0 0 9 6 0 79 113 17 14